COSMOS 2570

Satellite information

Favourite Embed

Satellite Type and Status

PAYLOADIN ORBIT

Key statistics

Satellite COSMOS 2570 at a glance.

Uptime

779

Days in orbit

Revolutions

≈ 14.0

Per day

Orbit

LEO

Low Earth Orbit

Inclination

67.1

Latest

Satellite identification and parameters

Extended collection of information and parameters for COSMOS 2570.

Object identification

Identified? True

Debris? False

Object name: COSMOS 2570

International designator: 2023-165A

Object number (NORAD): 58148

Object ID (CCSDS): 58148

Country: COMMONWEALTH OF INDEPENDENT STATES (CIS)

Current information (Y/N): Y

RCS size: LARGE

Orbital parameters

Period: 103.102 minutes

Inclination: 67.1488 deg

SMA: 7283.469 km

Apoapsis: 909.156 km

Periapsis: 901.512 km

RAAN: 20.3467 deg

Eccentricy: 0.00052477

Argument of periapsis: 267.4622 deg

Mean anomaly: 92.5862 deg

Mean motion: 13.96674962 rev/day

Mean motion (dot): -0.00000021 rev/day2

B* drag term: 0.000039136794 1/REarth

Two-line elements (TLE)

Creation date: Dec. 14, 2025, 3:07 a.m.

Reference frame: TEME

Reference center: EARTH

Epoch: Dec. 13, 2025, 3:31 p.m. UTC

TLE line 0: 0 COSMOS 2570

TLE line 1: 1 58148U 23165A 25347.64706573 -.00000021 00000-0 39137-4 0 9993

TLE line 2: 2 58148 67.1488 20.3467 0005248 267.4622 92.5862 13.96674962108725

Live tracking on map

Real-time ground track for satellite COSMOS 2570.

In-orbit conjunctions

There are no conjunctions computed for COSMOS 2570, at the moment. Check back to stay up to date, as we update our databases every day.

Go to all conjunctions

Associated space launch

Note: Payload identity uncertain. Multiple other military payloads that are not identified may be on board. Lotos-S1 spacecraft is a part of the Liana constellation, designed for orbital electronic intelligence.

COSMOS 2570 was lifted into orbit during the mission ‘Soyuz 2.1b | Kosmos 2570 (Lotos-S1 #8)’, on board a Soyuz 2.1b space rocket.

The launch took place on Oct. 27, 2023, 6:04 a.m. from 43/3 (43L).

For more information about the launch, click the button.

Launch to space Soyuz 2.1b | Kosmos 2570 (Lotos-S1 #8)
Soyuz 2.1b | Kosmos 2570 (Lotos-S1 #8)

Agency: N/A

Status: Launch Successful

Launch date: Oct. 27, 2023, 6:04 a.m. UTC

Rocket: Soyuz 2.1b

Launch pad: 43/3 (43L)

Location: Plesetsk Cosmodrome, Russian Federation

...

Latest news about this satellite

There are no fresh news available about this satellite. Check back as we update our databases every day.


Newsletter sign-up

Weekly statistics, charts and insights to help you stay on top of the space industry.